| time (UTC) | temp C | wind direction | speed KPH | gust KPH | rain 1hr cm | rain 24hr cm | rain mn cm | humidity % | barometer mb |
| 20260505073010 | 12 | 187 | 12.9 | 24.1 | 0.00 | 0.00 | 0.00 | 82 | 1006.6 |
| 20260505071502 | 13 | 156 | 14.5 | 27.4 | 0.00 | 0.00 | 0.00 | 81 | 1006.3 |
| 20260505070100 | 13 | 202 | 11.3 | 27.4 | 0.00 | 0.00 | 0.00 | 81 | 1006.2 |
| 20260505064558 | 13 | 232 | 12.9 | 27.4 | 0.00 | 0.00 | 0.00 | 80 | 1006.3 |
| 20260505063056 | 13 | 186 | 11.3 | 27.4 | 0.00 | 0.00 | 0.00 | 80 | 1006.0 |
| 20260505061553 | 13 | 188 | 12.9 | 29.0 | 0.00 | 0.00 | 0.00 | 79 | 1006.0 |
| 20260505060051 | 14 | 178 | 9.7 | 20.9 | 0.00 | 0.00 | 0.00 | 79 | 1005.9 |
| 20260505054555 | 14 | 229 | 11.3 | 27.4 | 0.00 | 0.00 | 0.00 | 79 | 1005.7 |
| 20260505053047 | 14 | 178 | 11.3 | 22.5 | 0.00 | 0.00 | 0.00 | 78 | 1005.7 |
| 20260505051546 | 15 | 189 | 9.7 | 22.5 | 0.00 | 0.00 | 0.00 | 79 | 1005.6 |
| 20260505041544 | 16 | 205 | 9.7 | 24.1 | 0.00 | 0.00 | 0.00 | 75 | 1005.2 |
| 20260505040042 | 17 | 198 | 11.3 | 20.9 | 0.00 | 0.00 | 0.00 | 73 | 1005.1 |
| 20260505034541 | 18 | 178 | 9.7 | 19.3 | 0.00 | 0.00 | 0.00 | 67 | 1004.9 |
| 20260505033043 | 19 | 199 | 6.4 | 16.1 | 0.00 | 0.00 | 0.00 | 60 | 1004.8 |
| 20260505031553 | 19 | 182 | 6.4 | 11.3 | 0.00 | 0.00 | 0.00 | 59 | 1004.6 |
| 20260505030044 | 19 | 195 | 8.0 | 14.5 | 0.00 | 0.00 | 0.00 | 58 | 1004.7 |
| 20260505024548 | 19 | 202 | 6.4 | 12.9 | 0.00 | 0.00 | 0.00 | 60 | 1004.6 |
| 20260505023042 | 19 | 181 | 6.4 | 16.1 | 0.00 | 0.00 | 0.00 | 62 | 1004.6 |
| 20260505021537 | 21 | 195 | 4.8 | 9.7 | 0.00 | 0.00 | 0.00 | 64 | 1004.8 |
| 20260505020036 | 21 | 189 | 3.2 | 8.0 | 0.00 | 0.00 | 0.00 | 65 | 1004.9 |
| 20260505014555 | 21 | 209 | 6.4 | 14.5 | 0.00 | 0.00 | 0.00 | 59 | 1005.0 |
| 20260505013034 | 22 | 257 | 8.0 | 17.7 | 0.00 | 0.00 | 0.00 | 56 | 1005.0 |
| 20260505011540 | 23 | 242 | 8.0 | 14.5 | 0.00 | 0.00 | 0.00 | 54 | 1005.1 |
| 20260505010033 | 23 | 249 | 8.0 | 16.1 | 0.00 | 0.00 | 0.00 | 55 | 1005.1 |
| 20260505004533 | 23 | 246 | 4.8 | 17.7 | 0.00 | 0.00 | 0.00 | 54 | 1004.9 |
| 20260505003032 | 23 | 232 | 8.0 | 19.3 | 0.00 | 0.00 | 0.00 | 53 | 1004.9 |
| 20260505001531 | 24 | 211 | 6.4 | 17.7 | 0.00 | 0.00 | 0.00 | 53 | 1005.1 |
| 20260505000031 | 25 | 190 | 4.8 | 14.5 | 0.00 | 0.00 | 0.00 | 51 | 1005.2 |
| 20260504234528 | 25 | 249 | 3.2 | 12.9 | 0.00 | 0.00 | 0.00 | 50 | 1005.4 |
| 20260504233028 | 25 | 211 | 4.8 | 12.9 | 0.00 | 0.00 | 0.00 | 49 | 1005.4 |
| 20260504231525 | 25 | 250 | 3.2 | 12.9 | 0.00 | 0.00 | 0.00 | 47 | 1005.5 |
| 20260504230023 | 24 | 246 | 4.8 | 17.7 | 0.00 | 0.00 | 0.00 | 46 | 1005.6 |
| 20260504224527 | 24 | 244 | 6.4 | 16.1 | 0.00 | 0.00 | 0.00 | 46 | 1005.8 |
| 20260504223020 | 23 | 211 | 8.0 | 14.5 | 0.00 | 0.00 | 0.00 | 47 | 1005.9 |
| 20260504221522 | 24 | 259 | 4.8 | 19.3 | 0.00 | 0.00 | 0.00 | 46 | 1006.0 |
| 20260504220018 | 24 | 240 | 9.7 | 24.1 | 0.00 | 0.00 | 0.00 | 48 | 1005.9 |
| 20260504214519 | 23 | 262 | 9.7 | 19.3 | 0.00 | 0.00 | 0.00 | 50 | 1006.0 |
| 20260504213020 | 24 | 250 | 6.4 | 17.7 | 0.00 | 0.00 | 0.00 | 51 | 1006.1 |
| 20260504211518 | 23 | 258 | 6.4 | 12.9 | 0.00 | 0.00 | 0.00 | 49 | 1006.4 |
| 20260504210128 | 24 | 251 | 4.8 | 11.3 | 0.00 | 0.00 | 0.00 | 50 | 1006.2 |
| 20260504204606 | 23 | 254 | 4.8 | 11.3 | 0.00 | 0.00 | 0.00 | 51 | 1006.5 |
| 20260504203032 | 23 | 254 | 3.2 | 12.9 | 0.00 | 0.00 | 0.00 | 55 | 1006.6 |
| 20260504201530 | 23 | 257 | 3.2 | 12.9 | 0.00 | 0.00 | 0.00 | 56 | 1006.6 |
| 20260504200027 | 22 | 252 | 4.8 | 16.1 | 0.00 | 0.00 | 0.00 | 60 | 1006.7 |
| 20260504194527 | 22 | 256 | 4.8 | 12.9 | 0.00 | 0.00 | 0.00 | 59 | 1006.8 |
| 20260504191553 | 21 | 242 | 9.7 | 17.7 | 0.00 | 0.00 | 0.00 | 61 | 1006.6 |
| 20260504190002 | 21 | 260 | 6.4 | 17.7 | 0.00 | 0.00 | 0.00 | 63 | 1006.8 |
| 20260504184603 | 21 | 252 | 11.3 | 19.3 | 0.00 | 0.00 | 0.00 | 64 | 1006.8 |
| 20260504183031 | 21 | 263 | 8.0 | 14.5 | 0.00 | 0.00 | 0.00 | 65 | 1006.6 |
| 20260504181530 | 21 | 257 | 3.2 | 14.5 | 0.00 | 0.00 | 0.00 | 67 | 1006.8 |
| 20260504180028 | 21 | 235 | 8.0 | 12.9 | 0.00 | 0.00 | 0.00 | 68 | 1006.9 |
| 20260504174526 | 22 | 205 | 4.8 | 9.7 | 0.00 | 0.00 | 0.00 | 63 | 1006.7 |
| 20260504173022 | 22 | 15 | 1.6 | 4.8 | 0.00 | 0.00 | 0.00 | 53 | 1006.7 |
| 20260504171519 | 21 | 21 | 1.6 | 6.4 | 0.00 | 0.00 | 0.00 | 56 | 1006.8 |
| 20260504081505 | 14 | 20 | 0.0 | 1.6 | 0.00 | 0.00 | 0.00 | 75 | 1005.5 |